Havre St Pierre, Quebec

11:48 PM EST on February 21, 2017 (GMT -0500)
Havre Saint-Pierre

Weather History for CYGV - February, 2013

Change the Weather History Date:

Tuesday, February 26, 2013

  Actual Average Record
Temperature  
Mean Temperature 17 °F -  
Max Temperature 26 °F 25 °F 42 °F (2016)
Min Temperature 8 °F 8 °F -18 °F (1997)
Degree Days  
Heating Degree Days 48    
Moisture  
Dew Point 11 °F    
Average Humidity 75    
Maximum Humidity 100    
Minimum Humidity 50    
Precipitation  
Precipitation 0.00 in - - ()
Sea Level Pressure  
Sea Level Pressure 30.30 in    
Wind  
Wind Speed 7 mph ()    
Max Wind Speed 12 mph    
Max Gust Speed -    
Visibility 9.0 miles    
Events      
Averages and records for this station are not official NWS values.
T = Trace of Precipitation, MM = Missing Value Source: Averaged Metar Reports

Daily Weather History Graph

Daily Weather History Graph

Search for Another Location

Airport or City:

Trip Planner

Search our weather history database for the weather conditions in past years. The results will help you decide how hot, cold, wet, or windy it might be!

Date:

Astronomy

Feb. 26, 2013 Rise Set
Actual Time 6:03 AM EST 4:51 PM EST
Civil Twilight 5:31 AM EST 5:24 PM EST
Nautical Twilight 4:53 AM EST 6:02 PM EST
Astronomical Twilight 4:15 AM EST 6:39 PM EST
Moon 6:16 PM EST (2/26) 5:54 AM EST (2/26)
Length of Visible Light 11h 53m
Length of Day
10h 47m
Full, 99% of the Moon is Illuminated
Feb 26
Full
Mar 4
Last Quarter
Mar 11
New
Mar 19
First Quarter
Mar 27
Full

Hourly Weather History & Observations

Time (EST) Temp. Windchill Dew Point Humidity Pressure Visibility Wind Dir Wind Speed Gust Speed Precip Events Conditions
12:00 AM 12.2 °F -0.2 °F 5.0 °F 73% 30.21 in 9.0 mi NNE 9.2 mph - N/A   Clear
1:00 AM 12.2 °F -1.0 °F 5.0 °F 73% 30.22 in 9.0 mi NNE 10.4 mph - N/A   Clear
2:00 AM 10.4 °F -1.5 °F 3.2 °F 73% 30.23 in 9.0 mi NNE 8.1 mph - N/A   Clear
3:00 AM 10.4 °F -3.3 °F 3.2 °F 73% 30.24 in 9.0 mi North 10.4 mph - N/A   Clear
4:00 AM 10.4 °F -1.5 °F 3.2 °F 73% 30.25 in 9.0 mi North 8.1 mph - N/A   Clear
5:00 AM 10.4 °F -2.4 °F 3.2 °F 73% 30.27 in 9.0 mi North 9.2 mph - N/A   Clear
6:00 AM 8.6 °F 0.1 °F 3.2 °F 79% 30.29 in 9.0 mi North 4.6 mph - N/A   Clear
7:00 AM 10.4 °F -0.4 °F 3.2 °F 73% 30.31 in 9.0 mi NNE 6.9 mph - N/A   Clear
8:00 AM 14.0 °F 3.9 °F 5.0 °F 67% 30.32 in 9.0 mi NNE 6.9 mph - N/A   Clear
9:00 AM 19.4 °F - 8.6 °F 63% 30.33 in 9.0 mi NE 2.3 mph - N/A   Clear
10:00 AM 21.2 °F 14.9 °F 8.6 °F 58% 30.34 in 9.0 mi West 4.6 mph - N/A   Clear
11:00 AM 24.8 °F 19.1 °F 8.6 °F 50% 30.34 in 9.0 mi SW 4.6 mph - N/A   Clear
12:00 PM 24.8 °F 17.9 °F 10.4 °F 54% 30.32 in 9.0 mi SW 5.8 mph - N/A   Clear
1:00 PM 26.6 °F 17.5 °F 14.0 °F 59% 30.31 in 9.0 mi SW 9.2 mph - N/A   Clear
2:00 PM 26.6 °F 20.0 °F 15.8 °F 64% 30.30 in 9.0 mi West 5.8 mph - N/A   Clear
3:00 PM 26.6 °F 16.8 °F 17.6 °F 69% 30.30 in 9.0 mi WSW 10.4 mph - N/A   Clear
4:00 PM 24.8 °F 14.0 °F 21.2 °F 86% 30.30 in 9.0 mi West 11.5 mph - N/A   Clear
5:00 PM 23.0 °F 13.9 °F 19.4 °F 86% 30.30 in 9.0 mi West 8.1 mph - N/A   Clear
6:00 PM 19.4 °F 11.5 °F 17.6 °F 93% 30.31 in 9.0 mi West 5.8 mph - N/A   Clear
7:00 PM 21.2 °F 14.9 °F 19.4 °F 93% 30.32 in 9.0 mi WNW 4.6 mph - N/A   Clear
8:00 PM 19.4 °F 11.5 °F 19.4 °F 100% 30.32 in 9.0 mi WNW 5.8 mph - N/A   Clear
9:00 PM 19.4 °F 10.4 °F 17.6 °F 93% 30.32 in 9.0 mi WNW 6.9 mph - N/A   Clear
10:00 PM 19.4 °F 9.5 °F 17.6 °F 93% 30.32 in 9.0 mi West 8.1 mph - N/A   Clear
11:00 PM 15.8 °F 7.2 °F 14.0 °F 93% 30.31 in 9.0 mi West 5.8 mph - N/A   Clear